Tracking 20628 objects as of 6-Apr-2020
HD Live streaming from Space Station
objects crossing your sky now

RADUGA 4

Track RADUGA 4 now!
RADUGA 4 is classified as:


NORAD ID: 10987
Int'l Code: 1978-073A
Perigee: 35,746.8 km
Apogee: 35,840.3 km
Inclination: 10.3 °
Period: 1,436.1 minutes
Semi major axis: 42164 km
RCS: 1 m2 (large)
Launch date: July 18, 1978
Source: Commonwealth of Independent States (former USSR) (CIS)
Launch site: TYURATAM MISSILE AND SPACE COMPLEX (TTMTR)
aabbcc
Your satellite tracking list
Your tracking list is empty




NASA's NSSDC Master Catalog

Two Line Element Set (TLE):
1 10987U 78073A   20096.92496740 +.00000117 +00000-0 +00000-0 0  9997
2 10987 010.2734 306.6377 0011086 348.3474 270.2851 01.00272426096908
Source of the keplerian elements: AFSPC